Estación de Coihueco

Ultimos registro cada 15 minutos 92
Estación Fecha / Hora Temperatura Humedad Lluvia Velocidad Dirección Radiación Presion
92 Coihueco 31-08-2026 22:45 9,5 87,5 0 0,5 138 0,6 998,4
91 Coihueco 31-08-2026 22:30 9,6 87,1 0 0,5 135 0,6 998,7
90 Coihueco 31-08-2026 22:15 9,6 87,8 0 0,5 145 0,6 999
89 Coihueco 31-08-2026 22:00 9,7 88 0 0 142 0,6 999,1
88 Coihueco 31-08-2026 21:45 9,8 87,6 0 0 140 0,6 998,9
87 Coihueco 31-08-2026 21:30 9,9 87,7 0 0 143 0,6 998,8
86 Coihueco 31-08-2026 21:15 9,9 88,3 0 0 147 0,6 998,7
85 Coihueco 31-08-2026 21:00 10,3 87,4 0 0,5 142 0,6 998,7
84 Coihueco 31-08-2026 20:45 10,4 87,9 0 0 147 0,6 998,7
83 Coihueco 31-08-2026 20:30 10,5 87,5 0 0 152 0,6 998,8
82 Coihueco 31-08-2026 20:15 10,7 87,3 0 0 152 0,6 998,6
81 Coihueco 31-08-2026 20:00 11,5 85,3 0 0 152 0,6 998,6
80 Coihueco 31-08-2026 19:45 11,5 88,3 0 0 213 0,6 998,6
79 Coihueco 31-08-2026 19:30 11,7 87,3 0 0 230 0,6 998,5
78 Coihueco 31-08-2026 19:15 12,3 85,8 0 0 230 0,6 998,3
77 Coihueco 31-08-2026 19:00 12,4 85,6 0 0 261 0,6 998,2
76 Coihueco 31-08-2026 18:45 12,5 84,9 0 0 293 0,6 998,1
75 Coihueco 31-08-2026 18:30 12,6 83 0 0 302 1,9 998
74 Coihueco 31-08-2026 18:15 13,2 76,7 0 0 302 11,9 998,1
73 Coihueco 31-08-2026 18:00 13,8 74,4 0 0 302 25,6 998,1
72 Coihueco 31-08-2026 17:45 14,5 71,8 0 0 302 31,9 998,1
71 Coihueco 31-08-2026 17:30 16 57,8 0 0 337 29,4 998,1
70 Coihueco 31-08-2026 17:15 18,1 52,8 0 0 345 35,6 997,8
69 Coihueco 31-08-2026 17:00 18,7 48,2 0 0,5 338 140,6 997,7
68 Coihueco 31-08-2026 16:45 18,5 47 0 0,5 341 278,1 997,6
67 Coihueco 31-08-2026 16:30 18,9 49,4 0 1 331 323,1 997,5
66 Coihueco 31-08-2026 16:15 18,7 46,6 0 1 330 374,4 997,5
65 Coihueco 31-08-2026 16:00 18,5 50,2 0 0,5 319 405,6 997,6
64 Coihueco 31-08-2026 15:45 19,3 47,6 0 0,5 337 450,6 997,8
63 Coihueco 31-08-2026 15:30 18,6 49 0 1,5 343 483,1 997,6
62 Coihueco 31-08-2026 15:15 19,2 46,9 0 1 3 671,9 997,5
61 Coihueco 31-08-2026 15:00 18,4 52,6 0 0,5 355 320,6 997,8
60 Coihueco 31-08-2026 14:45 17,7 56,4 0 1 14 433,1 998
59 Coihueco 31-08-2026 14:30 17,4 52,4 0 1 357 310,6 998,2
58 Coihueco 31-08-2026 14:15 17,4 57,8 0 1,5 24 633,1 998,6
57 Coihueco 31-08-2026 14:00 18 56,5 0 2 20 339,4 998,9
56 Coihueco 31-08-2026 13:45 17,9 54,9 0 1,5 25 754,4 998,9
55 Coihueco 31-08-2026 13:30 17,2 54,3 0 1 351 508,1 998,9
54 Coihueco 31-08-2026 13:15 17,3 59,7 0 2 18 488,1 999,1
53 Coihueco 31-08-2026 13:00 17,8 63,3 0 2 15 728,1 999,2
52 Coihueco 31-08-2026 12:45 17,1 58,3 0 1,5 20 674,4 999,3
51 Coihueco 31-08-2026 12:30 17,1 58,2 0 2 22 621,9 999,3
50 Coihueco 31-08-2026 12:15 16,9 66,1 0 1,5 31 634,4 999,5
49 Coihueco 31-08-2026 12:00 16,4 63,3 0 1,5 34 543,1 999,5
48 Coihueco 31-08-2026 11:45 15,7 65,4 0 1,5 41 326,9 999,8
47 Coihueco 31-08-2026 11:30 15,6 66,1 0 1,5 32 554,4 999,6
46 Coihueco 31-08-2026 11:15 15,6 68,6 0 1,5 37 599,4 999,5
45 Coihueco 31-08-2026 11:00 15,2 70 0 1 28 639,4 999,6
44 Coihueco 31-08-2026 10:45 13,7 75,3 0 1 29 200,6 999,7
43 Coihueco 31-08-2026 10:30 13,5 75,8 0 1,5 31 238,1 999,8
42 Coihueco 31-08-2026 10:15 13,6 76,5 0 1 21 259,4 999,7
41 Coihueco 31-08-2026 10:00 13,8 75,7 0 0,5 20 216,9 999,8
40 Coihueco 31-08-2026 09:45 13,3 75,7 0 0 46 210,6 999,7
39 Coihueco 31-08-2026 09:30 13,1 82,9 0 0 58 186,9 999,5
38 Coihueco 31-08-2026 09:15 11,9 84,6 0 0,5 56 130,6 999,4
37 Coihueco 31-08-2026 09:00 11,8 83,4 0 1 49 269,4 999,1
36 Coihueco 31-08-2026 08:45 10,6 87,5 0 0,5 63 119,4 998,9
35 Coihueco 31-08-2026 08:30 10 91,9 0 0 62 76,9 999,1
34 Coihueco 31-08-2026 08:15 9,6 93,3 0 0,5 63 65,6 998,8
33 Coihueco 31-08-2026 08:00 9 95,1 0,2 0 126 24,4 998,6
32 Coihueco 31-08-2026 07:45 8,8 95,8 0 0 129 14,4 998,3
31 Coihueco 31-08-2026 07:30 8,8 95,3 0 0 132 10,6 998
30 Coihueco 31-08-2026 07:15 8,9 94 0 0 117 3,1 997,7
29 Coihueco 31-08-2026 07:00 8,9 93,9 0 0 98 0,6 997,7
28 Coihueco 31-08-2026 06:45 8,8 94,5 0,2 1 91 0,6 997,4
27 Coihueco 31-08-2026 06:30 8,7 96,9 0 0 291 0,6 997,4
26 Coihueco 31-08-2026 06:15 8,7 96,3 0,2 0 282 0,6 997,5
25 Coihueco 31-08-2026 06:00 8,8 94,8 0 0 282 0,6 997,4
24 Coihueco 31-08-2026 05:45 8,9 94 0 0 282 0,6 997,1
23 Coihueco 31-08-2026 05:30 8,7 94,6 0 0 316 0,6 996,7
22 Coihueco 31-08-2026 05:15 8,9 92,9 0 0 112 0,6 996,5
21 Coihueco 31-08-2026 05:00 9,6 86,9 0 0 118 0,6 995,9
20 Coihueco 31-08-2026 04:45 9,3 90,3 0 0 118 0,6 995,9
19 Coihueco 31-08-2026 04:30 9,2 90,1 0 0 118 0,6 995,9
18 Coihueco 31-08-2026 04:15 9,3 90,2 0 0 118 0,6 995,8
17 Coihueco 31-08-2026 04:00 9,1 92 0 0 118 0,6 995,9
16 Coihueco 31-08-2026 03:45 9,2 92,2 0 1 124 0,6 995,9
15 Coihueco 31-08-2026 03:30 9,1 93 0 1,5 126 0,6 995,9
14 Coihueco 31-08-2026 03:15 9,1 93,9 0 1,5 128 0,6 996,1
13 Coihueco 31-08-2026 03:00 9 94,3 0 1 146 0,6 996,4
12 Coihueco 31-08-2026 02:45 9,1 94,7 0,2 0,5 145 0,6 996,8
11 Coihueco 31-08-2026 02:30 9,2 94,5 0,2 0,5 145 0,6 996,8
10 Coihueco 31-08-2026 02:15 9,3 93,7 0,2 0,5 142 0,6 996,8
9 Coihueco 31-08-2026 02:00 9,2 94,7 0,2 0 161 0,6 996,6
8 Coihueco 31-08-2026 01:45 9,2 93,7 0,2 0 149 0,6 996,5
7 Coihueco 31-08-2026 01:30 9,5 92,1 0 0,5 138 0,6 996,3
6 Coihueco 31-08-2026 01:15 9,4 92,8 0 1 143 0,6 996,1
5 Coihueco 31-08-2026 01:00 9,5 91,8 0,2 0,5 145 0,6 996,3
4 Coihueco 31-08-2026 00:45 9,6 93,7 0 1 145 0,6 995,9
3 Coihueco 31-08-2026 00:30 9,8 90,7 0,4 0,5 157 0,6 996
2 Coihueco 31-08-2026 00:15 9,9 89,7 0 0,5 154 0,6 995,9
1 Coihueco 31-08-2026 00:00 10,2 88 0 0 119 0,6 995,8